COSMOS 1066

导读 | 星芒AI

COSMOS 1066 是苏联于1979年发射的一颗军用侦察卫星,属于“宇宙”系列。该卫星主要用于电子情报收集和监视任务,具体功能和轨道参数未公开。作为冷战时期苏联太空计划的一部分,COSMOS 1066 在轨运行一段时间后失联,最终再入大气层销毁。该任务体现了苏联在军事航天领域的持续发展与技术能力。

基本信息
目录编号:
11165
目录名称:
COSMOS 1066
国际标识:
1978-121A
轨道中心:
EARTH
卫星名称:
COSMOS 1066
卫星全名:
--
卫星状态:
在轨 (已飞行17112 天)
发射日期:
1978-12-23 UTC
国别 :
俄罗斯(独联体) (CIS)
星等 :
--
轨道信息
数据来源 国际轨道数据
星历时间: 2025-10-28T19:27:30+0800
20小时前
查看轨道信息
半长轴: 7230.481km
偏心率: 0.0050099
轨道倾角: 81.234°
近地点辐角 35.027°
升交点赤经 122.244°
平近点角 325.418°
近地点: 816.122km
远地点: 888.57km
周期: 101.979分钟
每日圈数: 14.120563
详细信息
使用方式:
暂无
2D轨道图
3D轨道图
轨道高度分析图
轨道倾角分析图
轨道综合分析图
查看轨道综合分析图